| time (UTC) | temp F | wind direction | speed MPH | gust MPH | rain 1hr in | rain 24hr in | rain mn in | humidity % | barometer mb |
| 20260507123310 | 39 | 196 | 1.0 | 2.0 | 0.00 | 0.00 | 0.00 | 98 | 1020.4 |
| 20260507123048 | 39 | 196 | 0.0 | 2.0 | 0.00 | 0.00 | 0.00 | 98 | 1019.8 |
| 20260507121836 | 39 | 196 | 0.0 | 1.0 | 0.00 | 0.00 | 0.00 | 98 | 1020.6 |
| 20260507121545 | 39 | 196 | 0.0 | 1.0 | 0.00 | 0.00 | 0.00 | 98 | 1020.0 |
| 20260507120322 | 39 | 196 | 2.0 | 2.0 | 0.00 | 0.00 | 0.00 | 98 | 1020.7 |
| 20260507120002 | 39 | 183 | 0.0 | 3.0 | 0.00 | 0.00 | 0.00 | 98 | 1020.2 |
| 20260507114847 | 40 | 177 | 0.0 | 2.0 | 0.00 | 0.00 | 0.00 | 98 | 1021.0 |
| 20260507114504 | 39 | 177 | 0.0 | 2.0 | 0.00 | 0.00 | 0.00 | 98 | 1020.4 |
| 20260507113308 | 40 | 177 | 1.0 | 2.0 | 0.00 | 0.00 | 0.00 | 98 | 1020.9 |
| 20260507113025 | 39 | 177 | 1.0 | 2.0 | 0.00 | 0.00 | 0.00 | 98 | 1020.3 |
| 20260507111920 | 40 | 219 | 2.0 | 3.0 | 0.00 | 0.00 | 0.00 | 98 | 1021.0 |
| 20260507111547 | 39 | 212 | 1.0 | 3.0 | 0.00 | 0.00 | 0.00 | 98 | 1020.3 |
| 20260507110325 | 40 | 198 | 1.0 | 4.0 | 0.00 | 0.00 | 0.00 | 98 | 1021.0 |
| 20260507110006 | 39 | 196 | 2.0 | 4.0 | 0.00 | 0.00 | 0.00 | 98 | 1020.4 |
| 20260507104825 | 40 | 224 | 1.0 | 3.0 | 0.00 | 0.00 | 0.00 | 97 | 1021.2 |
| 20260507104507 | 39 | 198 | 1.0 | 3.0 | 0.00 | 0.00 | 0.00 | 97 | 1020.5 |
| 20260507103308 | 40 | 200 | 1.0 | 3.0 | 0.00 | 0.00 | 0.00 | 97 | 1021.2 |
| 20260507103025 | 39 | 200 | 0.0 | 3.0 | 0.00 | 0.00 | 0.00 | 97 | 1020.6 |
| 20260507101811 | 40 | 194 | 2.0 | 3.0 | 0.00 | 0.00 | 0.00 | 97 | 1021.3 |
| 20260507101547 | 40 | 192 | 0.0 | 2.0 | 0.00 | 0.00 | 0.00 | 97 | 1020.7 |
| 20260507100324 | 40 | 186 | 2.0 | 6.0 | 0.00 | 0.00 | 0.00 | 97 | 1021.4 |
| 20260507100007 | 40 | 175 | 2.0 | 6.0 | 0.00 | 0.00 | 0.00 | 97 | 1020.7 |
| 20260507094803 | 41 | 194 | 3.0 | 6.0 | 0.00 | 0.00 | 0.00 | 97 | 1021.6 |
| 20260507094527 | 40 | 208 | 3.0 | 6.0 | 0.00 | 0.00 | 0.00 | 97 | 1020.9 |
| 20260507093311 | 42 | 212 | 4.0 | 7.0 | 0.00 | 0.00 | 0.00 | 97 | 1021.6 |
| 20260507093049 | 41 | 209 | 3.0 | 6.0 | 0.00 | 0.00 | 0.00 | 97 | 1021.0 |
| 20260507091810 | 42 | 198 | 4.0 | 6.0 | 0.00 | 0.00 | 0.00 | 97 | 1021.8 |
| 20260507091513 | 42 | 208 | 3.0 | 4.0 | 0.00 | 0.00 | 0.00 | 97 | 1021.1 |
| 20260507090346 | 42 | 219 | 3.0 | 4.0 | 0.00 | 0.00 | 0.00 | 97 | 1021.8 |
| 20260507090058 | 42 | 206 | 2.0 | 4.0 | 0.00 | 0.00 | 0.00 | 97 | 1021.1 |
| 20260507084848 | 42 | 223 | 2.0 | 4.0 | 0.00 | 0.00 | 0.00 | 97 | 1021.8 |
| 20260507084531 | 42 | 202 | 3.0 | 5.0 | 0.00 | 0.00 | 0.00 | 97 | 1021.1 |
| 20260507083334 | 43 | 221 | 3.0 | 6.0 | 0.00 | 0.00 | 0.00 | 97 | 1021.8 |
| 20260507083030 | 42 | 208 | 3.0 | 6.0 | 0.00 | 0.00 | 0.00 | 97 | 1021.0 |
| 20260507081818 | 43 | 218 | 3.0 | 7.0 | 0.00 | 0.00 | 0.00 | 97 | 1022.0 |
| 20260507081552 | 42 | 200 | 3.0 | 4.0 | 0.00 | 0.00 | 0.00 | 97 | 1021.2 |
| 20260507080319 | 43 | 214 | 3.0 | 6.0 | 0.00 | 0.00 | 0.00 | 97 | 1021.9 |
| 20260507080002 | 42 | 199 | 2.0 | 6.0 | 0.00 | 0.00 | 0.00 | 97 | 1021.1 |
| 20260507074903 | 43 | 217 | 3.0 | 6.0 | 0.00 | 0.00 | 0.00 | 97 | 1022.0 |
| 20260507074543 | 42 | 193 | 2.0 | 6.0 | 0.00 | 0.00 | 0.00 | 97 | 1021.1 |
| 20260507073329 | 43 | 215 | 3.0 | 6.0 | 0.00 | 0.00 | 0.00 | 97 | 1021.9 |
| 20260507073044 | 42 | 200 | 3.0 | 5.0 | 0.00 | 0.00 | 0.00 | 97 | 1021.0 |
| 20260507071834 | 43 | 221 | 3.0 | 8.0 | 0.00 | 0.00 | 0.00 | 97 | 1021.8 |
| 20260507071546 | 43 | 216 | 3.0 | 8.0 | 0.00 | 0.00 | 0.00 | 97 | 1021.0 |
| 20260507070322 | 44 | 220 | 4.0 | 6.0 | 0.00 | 0.00 | 0.00 | 97 | 1022.0 |
| 20260507070009 | 43 | 216 | 3.0 | 6.0 | 0.00 | 0.00 | 0.00 | 96 | 1021.0 |
| 20260507064847 | 44 | 192 | 4.0 | 7.0 | 0.00 | 0.00 | 0.00 | 96 | 1022.0 |
| 20260507064507 | 44 | 213 | 3.0 | 7.0 | 0.00 | 0.00 | 0.00 | 96 | 1021.0 |
| 20260507063306 | 45 | 233 | 3.0 | 4.0 | 0.00 | 0.00 | 0.00 | 96 | 1022.0 |
| 20260507063033 | 44 | 229 | 2.0 | 4.0 | 0.00 | 0.00 | 0.00 | 96 | 1021.0 |
| 20260507061854 | 45 | 218 | 3.0 | 5.0 | 0.00 | 0.00 | 0.00 | 96 | 1021.9 |
| 20260507061511 | 44 | 229 | 3.0 | 4.0 | 0.00 | 0.00 | 0.00 | 96 | 1021.0 |
| 20260507060320 | 45 | 218 | 3.0 | 4.0 | 0.00 | 0.00 | 0.00 | 96 | 1021.9 |
| 20260507060029 | 44 | 210 | 3.0 | 6.0 | 0.00 | 0.00 | 0.00 | 96 | 1021.1 |
| 20260507054907 | 45 | 218 | 3.0 | 4.0 | 0.00 | 0.00 | 0.00 | 96 | 1022.0 |
| 20260507054505 | 45 | 208 | 2.0 | 4.0 | 0.00 | 0.00 | 0.00 | 96 | 1021.1 |
| 20260507053305 | 45 | 217 | 2.0 | 5.0 | 0.00 | 0.00 | 0.00 | 95 | 1022.2 |
| 20260507053026 | 45 | 208 | 2.0 | 5.0 | 0.00 | 0.00 | 0.00 | 95 | 1021.2 |
| 20260507051811 | 46 | 220 | 3.0 | 5.0 | 0.00 | 0.00 | 0.00 | 95 | 1022.3 |
| 20260507051602 | 45 | 227 | 2.0 | 7.0 | 0.00 | 0.00 | 0.00 | 95 | 1021.2 |
| 20260507050341 | 46 | 231 | 3.0 | 7.0 | 0.00 | 0.00 | 0.00 | 94 | 1022.4 |
| 20260507050051 | 46 | 222 | 4.0 | 7.0 | 0.00 | 0.00 | 0.00 | 94 | 1021.3 |
| 20260507044825 | 46 | 218 | 2.0 | 6.0 | 0.00 | 0.00 | 0.00 | 93 | 1022.4 |
| 20260507044508 | 46 | 207 | 3.0 | 6.0 | 0.00 | 0.00 | 0.00 | 93 | 1021.3 |
| 20260507043310 | 47 | 221 | 4.0 | 8.0 | 0.00 | 0.00 | 0.00 | 92 | 1022.5 |
| 20260507043030 | 46 | 212 | 3.0 | 8.0 | 0.00 | 0.00 | 0.00 | 92 | 1021.3 |
| 20260507041920 | 47 | 209 | 4.0 | 6.0 | 0.00 | 0.00 | 0.00 | 92 | 1022.4 |
| 20260507041553 | 46 | 200 | 4.0 | 6.0 | 0.00 | 0.00 | 0.00 | 92 | 1021.3 |
| 20260507040347 | 47 | 204 | 3.0 | 8.0 | 0.00 | 0.00 | 0.00 | 92 | 1022.3 |
| 20260507040033 | 46 | 200 | 4.0 | 8.0 | 0.00 | 0.00 | 0.00 | 91 | 1021.1 |
| 20260507034810 | 47 | 204 | 3.0 | 7.0 | 0.00 | 0.00 | 0.00 | 90 | 1022.3 |
| 20260507034555 | 47 | 205 | 3.0 | 7.0 | 0.00 | 0.00 | 0.00 | 90 | 1021.1 |
| 20260507033316 | 48 | 195 | 4.0 | 7.0 | 0.00 | 0.00 | 0.00 | 89 | 1022.2 |
| 20260507033014 | 47 | 191 | 3.0 | 7.0 | 0.00 | 0.00 | 0.00 | 88 | 1021.0 |
| 20260507031822 | 48 | 229 | 3.0 | 5.0 | 0.00 | 0.00 | 0.00 | 87 | 1022.0 |
| 20260507031536 | 48 | 186 | 3.0 | 6.0 | 0.00 | 0.00 | 0.00 | 87 | 1020.8 |
| 20260507030311 | 49 | 189 | 2.0 | 5.0 | 0.00 | 0.00 | 0.00 | 86 | 1022.2 |
| 20260507030056 | 49 | 225 | 1.0 | 5.0 | 0.00 | 0.00 | 0.00 | 86 | 1020.8 |
| 20260507024808 | 49 | 181 | 4.0 | 7.0 | 0.00 | 0.00 | 0.00 | 86 | 1022.0 |
| 20260507024524 | 49 | 204 | 3.0 | 7.0 | 0.00 | 0.00 | 0.00 | 86 | 1020.6 |
| 20260507023405 | 51 | 186 | 6.0 | 9.0 | 0.00 | 0.00 | 0.00 | 83 | 1021.7 |
| 20260507023059 | 50 | 194 | 4.0 | 9.0 | 0.00 | 0.00 | 0.00 | 83 | 1020.5 |
| 20260507021849 | 51 | 221 | 6.0 | 11.0 | 0.00 | 0.00 | 0.00 | 81 | 1021.6 |
| 20260507021543 | 51 | 206 | 7.0 | 11.0 | 0.00 | 0.00 | 0.00 | 81 | 1020.3 |
| 20260507020336 | 52 | 191 | 7.0 | 11.0 | 0.00 | 0.00 | 0.00 | 80 | 1021.6 |
| 20260507020050 | 52 | 213 | 6.0 | 11.0 | 0.00 | 0.00 | 0.00 | 79 | 1020.4 |
| 20260507014822 | 52 | 215 | 6.0 | 9.0 | 0.00 | 0.00 | 0.00 | 79 | 1021.6 |
| 20260507014603 | 52 | 206 | 6.0 | 10.0 | 0.00 | 0.00 | 0.00 | 79 | 1020.5 |
| 20260507013342 | 53 | 217 | 5.0 | 10.0 | 0.00 | 0.00 | 0.00 | 79 | 1021.7 |
| 20260507013054 | 53 | 175 | 6.0 | 10.0 | 0.00 | 0.00 | 0.00 | 78 | 1020.5 |
| 20260507011819 | 54 | 177 | 7.0 | 11.0 | 0.00 | 0.00 | 0.00 | 77 | 1022.0 |
| 20260507011516 | 54 | 183 | 6.0 | 12.0 | 0.00 | 0.00 | 0.00 | 77 | 1020.7 |
| 20260507010356 | 54 | 216 | 6.0 | 10.0 | 0.00 | 0.00 | 0.00 | 77 | 1022.1 |
| 20260507010111 | 54 | 216 | 6.0 | 11.0 | 0.00 | 0.00 | 0.00 | 77 | 1020.8 |
| 20260507004812 | 55 | 182 | 6.0 | 11.0 | 0.00 | 0.00 | 0.00 | 75 | 1022.2 |
| 20260507004520 | 55 | 191 | 6.0 | 11.0 | 0.00 | 0.00 | 0.00 | 75 | 1020.7 |
| 20260507003341 | 56 | 198 | 6.0 | 12.0 | 0.00 | 0.00 | 0.00 | 76 | 1022.2 |
| 20260507003022 | 55 | 183 | 6.0 | 13.0 | 0.00 | 0.00 | 0.00 | 77 | 1020.7 |
| 20260507001826 | 56 | 202 | 5.0 | 12.0 | 0.00 | 0.00 | 0.00 | 76 | 1022.1 |
| 20260507001522 | 55 | 181 | 7.0 | 12.0 | 0.00 | 0.00 | 0.00 | 75 | 1020.7 |
| 20260507000335 | 57 | 190 | 7.0 | 12.0 | 0.00 | 0.00 | 0.00 | 73 | 1022.1 |
| 20260507000023 | 57 | 220 | 7.0 | 12.0 | 0.00 | 0.00 | 0.00 | 74 | 1020.6 |
| 20260506234838 | 57 | 191 | 6.0 | 13.0 | 0.00 | 0.00 | 0.00 | 73 | 1022.2 |
| 20260506234527 | 56 | 182 | 8.0 | 13.0 | 0.00 | 0.00 | 0.00 | 73 | 1020.8 |
| 20260506233326 | 58 | 206 | 6.0 | 14.0 | 0.00 | 0.00 | 0.00 | 73 | 1022.2 |
| 20260506233026 | 57 | 166 | 8.0 | 14.0 | 0.00 | 0.00 | 0.00 | 73 | 1020.6 |
| 20260506231811 | 58 | 196 | 6.0 | 14.0 | 0.00 | 0.00 | 0.00 | 74 | 1022.1 |
| 20260506231605 | 57 | 192 | 7.0 | 14.0 | 0.00 | 0.00 | 0.00 | 73 | 1020.6 |
| 20260506230401 | 58 | 185 | 7.0 | 13.0 | 0.00 | 0.00 | 0.00 | 72 | 1022.2 |
| 20260506230029 | 57 | 177 | 8.0 | 12.0 | 0.00 | 0.00 | 0.00 | 73 | 1020.7 |
| 20260506224824 | 58 | 186 | 7.0 | 11.0 | 0.00 | 0.00 | 0.00 | 75 | 1022.1 |
| 20260506224535 | 57 | 173 | 8.0 | 11.0 | 0.00 | 0.00 | 0.00 | 74 | 1020.7 |
| 20260506223311 | 58 | 188 | 8.0 | 13.0 | 0.00 | 0.00 | 0.00 | 74 | 1022.2 |
| 20260506223050 | 58 | 180 | 7.0 | 13.0 | 0.00 | 0.00 | 0.00 | 74 | 1020.7 |
| 20260506221858 | 59 | 175 | 5.0 | 13.0 | 0.00 | 0.00 | 0.00 | 74 | 1022.2 |
| 20260506221531 | 59 | 188 | 8.0 | 13.0 | 0.00 | 0.00 | 0.00 | 73 | 1020.7 |
| 20260506220343 | 59 | 214 | 8.0 | 13.0 | 0.00 | 0.00 | 0.00 | 73 | 1022.2 |
| 20260506220036 | 59 | 188 | 8.0 | 14.0 | 0.00 | 0.00 | 0.00 | 73 | 1020.7 |
| 20260506214826 | 60 | 193 | 5.0 | 13.0 | 0.00 | 0.00 | 0.00 | 76 | 1022.2 |
| 20260506214536 | 59 | 193 | 6.0 | 13.0 | 0.00 | 0.00 | 0.00 | 78 | 1020.7 |
| 20260506213334 | 58 | 183 | 9.0 | 16.0 | 0.00 | 0.00 | 0.00 | 77 | 1022.1 |
| 20260506213037 | 58 | 176 | 8.0 | 13.0 | 0.00 | 0.00 | 0.00 | 78 | 1020.6 |
| 20260506211819 | 58 | 222 | 9.0 | 13.0 | 0.00 | 0.00 | 0.00 | 77 | 1022.0 |
| 20260506211559 | 58 | 201 | 5.0 | 11.0 | 0.00 | 0.00 | 0.00 | 77 | 1020.7 |
| 20260506210348 | 58 | 213 | 7.0 | 10.0 | 0.00 | 0.00 | 0.00 | 80 | 1022.1 |
| 20260506210105 | 57 | 205 | 4.0 | 10.0 | 0.00 | 0.00 | 0.00 | 81 | 1020.7 |
| 20260506204834 | 57 | 214 | 6.0 | 10.0 | 0.00 | 0.00 | 0.00 | 79 | 1022.1 |
| 20260506204606 | 57 | 217 | 7.0 | 11.0 | 0.00 | 0.00 | 0.00 | 80 | 1020.6 |
| 20260506203318 | 58 | 175 | 7.0 | 14.0 | 0.00 | 0.00 | 0.00 | 79 | 1022.3 |
| 20260506203016 | 57 | 173 | 7.0 | 14.0 | 0.00 | 0.00 | 0.00 | 80 | 1020.6 |
| 20260506201804 | 58 | 230 | 9.0 | 13.0 | 0.00 | 0.00 | 0.00 | 78 | 1022.0 |
| 20260506201545 | 58 | 177 | 7.0 | 11.0 | 0.00 | 0.00 | 0.00 | 78 | 1020.5 |
| 20260506200331 | 59 | 190 | 8.0 | 11.0 | 0.00 | 0.00 | 0.00 | 76 | 1021.8 |
| 20260506200039 | 59 | 176 | 6.0 | 11.0 | 0.00 | 0.00 | 0.00 | 74 | 1020.5 |
| 20260506194816 | 59 | 179 | 4.0 | 10.0 | 0.00 | 0.00 | 0.00 | 74 | 1021.7 |
| 20260506194601 | 58 | 194 | 4.0 | 10.0 | 0.00 | 0.00 | 0.00 | 73 | 1020.4 |
| 20260506193346 | 59 | 175 | 4.0 | 10.0 | 0.00 | 0.00 | 0.00 | 76 | 1021.7 |
| 20260506193040 | 58 | 158 | 4.0 | 10.0 | 0.00 | 0.00 | 0.00 | 76 | 1020.5 |
| 20260506191849 | 59 | 211 | 6.0 | 11.0 | 0.00 | 0.00 | 0.00 | 77 | 1022.0 |
| 20260506191521 | 58 | 201 | 6.0 | 11.0 | 0.00 | 0.00 | 0.00 | 76 | 1020.6 |
| 20260506190316 | 58 | 200 | 5.0 | 13.0 | 0.00 | 0.00 | 0.00 | 77 | 1022.0 |
| 20260506190043 | 58 | 161 | 5.0 | 13.0 | 0.00 | 0.00 | 0.00 | 77 | 1020.5 |
| 20260506184925 | 59 | 200 | 6.0 | 11.0 | 0.00 | 0.00 | 0.00 | 75 | 1022.0 |
| 20260506184634 | 58 | 200 | 5.0 | 11.0 | 0.00 | 0.00 | 0.00 | 75 | 1020.6 |
| 20260506183323 | 58 | 177 | 6.0 | 10.0 | 0.00 | 0.00 | 0.00 | 76 | 1021.9 |
| 20260506183018 | 57 | 196 | 4.0 | 10.0 | 0.00 | 0.00 | 0.00 | 78 | 1020.5 |
| 20260506181916 | 57 | 197 | 5.0 | 11.0 | 0.00 | 0.00 | 0.00 | 78 | 1021.9 |
| 20260506181542 | 57 | 201 | 4.0 | 8.0 | 0.00 | 0.00 | 0.00 | 80 | 1020.6 |
| 20260506180342 | 56 | 219 | 4.0 | 7.0 | 0.00 | 0.00 | 0.00 | 79 | 1021.6 |
| 20260506180042 | 56 | 190 | 3.0 | 7.0 | 0.00 | 0.00 | 0.00 | 79 | 1020.4 |
| 20260506174829 | 56 | 195 | 3.0 | 5.0 | 0.00 | 0.00 | 0.00 | 79 | 1021.5 |
| 20260506174543 | 55 | 179 | 2.0 | 5.0 | 0.00 | 0.00 | 0.00 | 78 | 1020.3 |
| 20260506173335 | 56 | 215 | 2.0 | 3.0 | 0.00 | 0.00 | 0.00 | 79 | 1021.5 |
| 20260506173048 | 55 | 229 | 0.0 | 5.0 | 0.00 | 0.00 | 0.00 | 80 | 1020.2 |
| 20260506171821 | 55 | 190 | 1.0 | 6.0 | 0.00 | 0.00 | 0.00 | 81 | 1021.3 |
| 20260506171504 | 54 | 164 | 1.0 | 6.0 | 0.00 | 0.00 | 0.00 | 81 | 1020.3 |
| 20260506170321 | 55 | 88 | 1.0 | 6.0 | 0.00 | 0.00 | 0.00 | 81 | 1021.5 |
| 20260506170025 | 54 | 17 | 1.0 | 6.0 | 0.00 | 0.00 | 0.00 | 82 | 1020.3 |
| 20260506164805 | 52 | 308 | 1.0 | 4.0 | 0.00 | 0.00 | 0.00 | 87 | 1021.5 |
| 20260506164548 | 52 | 23 | 1.0 | 4.0 | 0.00 | 0.00 | 0.00 | 87 | 1020.3 |
| 20260506163306 | 51 | 168 | 2.0 | 3.0 | 0.00 | 0.00 | 0.00 | 89 | 1021.6 |
| 20260506163005 | 51 | 169 | 1.0 | 3.0 | 0.00 | 0.00 | 0.00 | 90 | 1020.6 |
| 20260506161832 | 51 | 229 | 1.0 | 3.0 | 0.00 | 0.00 | 0.00 | 89 | 1021.8 |
| 20260506161507 | 50 | 186 | 1.0 | 6.0 | 0.00 | 0.00 | 0.00 | 90 | 1020.6 |
| 20260506160347 | 50 | 209 | 3.0 | 6.0 | 0.00 | 0.00 | 0.00 | 92 | 1021.7 |
| 20260506160006 | 49 | 240 | 2.0 | 6.0 | 0.00 | 0.00 | 0.00 | 93 | 1020.4 |
| 20260506154849 | 49 | 267 | 2.0 | 4.0 | 0.00 | 0.00 | 0.00 | 95 | 1021.1 |
| 20260506154510 | 48 | 89 | 1.0 | 4.0 | 0.00 | 0.00 | 0.00 | 96 | 1019.7 |
| 20260506153330 | 48 | 357 | 2.0 | 5.0 | 0.00 | 0.00 | 0.00 | 97 | 1020.9 |
| 20260506153007 | 47 | 11 | 2.0 | 5.0 | 0.00 | 0.00 | 0.00 | 97 | 1019.7 |
| 20260506151845 | 47 | 3 | 3.0 | 4.0 | 0.00 | 0.00 | 0.00 | 98 | 1021.2 |
| 20260506151508 | 47 | 30 | 1.0 | 3.0 | 0.00 | 0.00 | 0.00 | 98 | 1020.4 |
| 20260506150324 | 47 | 23 | 1.0 | 2.0 | 0.00 | 0.00 | 0.00 | 98 | 1021.6 |
| 20260506150029 | 46 | 58 | 0.0 | 2.0 | 0.00 | 0.00 | 0.00 | 98 | 1020.8 |
| 20260506144831 | 47 | 179 | 0.0 | 2.0 | 0.00 | 0.00 | 0.00 | 98 | 1021.7 |
| 20260506144534 | 46 | 179 | 0.0 | 2.0 | 0.00 | 0.00 | 0.00 | 98 | 1020.7 |
| 20260506143318 | 46 | 179 | 0.0 | 2.0 | 0.00 | 0.00 | 0.00 | 98 | 1021.4 |
| 20260506143053 | 46 | 179 | 0.0 | 2.0 | 0.00 | 0.00 | 0.00 | 98 | 1020.5 |
| 20260506141817 | 46 | 179 | 1.0 | 3.0 | 0.00 | 0.00 | 0.00 | 98 | 1021.3 |
| 20260506141513 | 46 | 199 | 2.0 | 3.0 | 0.00 | 0.00 | 0.00 | 98 | 1020.5 |
| 20260506140330 | 47 | 79 | 0.0 | 2.0 | 0.00 | 0.00 | 0.00 | 98 | 1021.0 |
| 20260506140018 | 46 | 79 | 0.0 | 2.0 | 0.00 | 0.00 | 0.00 | 98 | 1019.9 |
| 20260506134834 | 46 | 32 | 0.0 | 1.0 | 0.00 | 0.00 | 0.00 | 98 | 1020.9 |
| 20260506134516 | 46 | 32 | 0.0 | 2.0 | 0.00 | 0.00 | 0.00 | 98 | 1020.0 |
| 20260506133323 | 46 | 32 | 0.0 | 3.0 | 0.00 | 0.00 | 0.00 | 98 | 1020.7 |
| 20260506133039 | 46 | 21 | 1.0 | 3.0 | 0.00 | 0.00 | 0.00 | 98 | 1019.8 |
| 20260506131848 | 46 | 104 | 1.0 | 2.0 | 0.00 | 0.00 | 0.00 | 98 | 1020.6 |
| 20260506131517 | 46 | 104 | 0.0 | 2.0 | 0.00 | 0.00 | 0.00 | 98 | 1019.6 |
| 20260506130400 | 46 | 104 | 0.0 | 3.0 | 0.00 | 0.00 | 0.00 | 98 | 1020.6 |
| 20260506130057 | 46 | 104 | 1.0 | 3.0 | 0.00 | 0.00 | 0.00 | 98 | 1019.5 |
| 20260506124920 | 46 | 114 | 0.0 | 3.0 | 0.00 | 0.00 | 0.00 | 98 | 1020.3 |
| 20260506124521 | 46 | 114 | 0.0 | 3.0 | 0.00 | 0.00 | 0.00 | 98 | 1019.4 |